Torna al catalogo

QIANFAN-81

AttivoComunicazioniPO
NORAD 63167·PAYLOAD·🇨🇳 China

Lanciato Mar 11, 2025 da Wenchang Space Launch Site

Loading…

Prossimi Passaggi (prossime 24 ore)

TLE

AggiornatoSource: Space-Track

Epoca: Sep 14, 2026, 21:25 UTC

1 63167U 25046J   26257.89301788  .00000092  00000-0  12364-3 0  9996
2 63167  88.9651 291.2046 0016235  50.1287 310.1290 13.51020105 84776

Traccia QIANFAN-81 in tempo reale con AllMySat

Download on the App Store